Thermopolis, WY

6:21 PM MDT on August 31, 2016 (GMT -0600)
Thermopolis

Weather History for KTBX - April, 2013

Change the Weather History Date:

Sunday, April 14, 2013

  Actual Average (KWRL) Record (KWRL)
Temperature  
Mean Temperature 22 °F 45 °F  
Max Temperature 28 °F 60 °F 84 °F (2002)
Min Temperature 17 °F 31 °F 10 °F (1986)
Degree Days  
Heating Degree Days 42 20  
Month to date heating degree days 303  
Since 1 July heating degree days 7189  
Cooling Degree Days 0 0  
Month to date cooling degree days 0  
Year to date cooling degree days 0  
Moisture  
Dew Point 17 °F    
Average Humidity 85    
Maximum Humidity 100    
Minimum Humidity 51    
Precipitation  
Precipitation 0.00 in 0.03 in 0.54 in (1998)
Month to date precipitation 0.29  
Year to date precipitation 1.17  
Sea Level Pressure  
Sea Level Pressure 29.68 in    
Wind  
Wind Speed 18 mph (NW)    
Max Wind Speed 31 mph    
Max Gust Speed 33 mph    
Visibility 7 miles    
Events Snow    
T = Trace of Precipitation, MM = Missing Value Source: NWS Daily Summary

Daily Weather History Graph

Daily Weather History Graph

Search for Another Location

Airport or City:

Trip Planner

Search our weather history database for the weather conditions in past years. The results will help you decide how hot, cold, wet, or windy it might be!

Date:

Astronomy

Apr. 14, 2013 Rise Set
Actual Time 6:31 AM MDT 7:55 PM MDT
Civil Twilight 6:01 AM MDT 8:25 PM MDT
Nautical Twilight 5:26 AM MDT 9:01 PM MDT
Astronomical Twilight 4:48 AM MDT 9:39 PM MDT
Moon 9:05 AM MDT (4/14) No Moon Set
Length of Visible Light 14h 23m
Length of Day
13h 23m
Waxing Crescent, 17% of the Moon is Illuminated
Apr 14
Waxing Crescent
Apr 18
First Quarter
Apr 25
Full
May 2
Last Quarter
May 9
New

Hourly Weather History & Observations

Time (MDT) Temp. Windchill Dew Point Humidity Pressure Visibility Wind Dir Wind Speed Gust Speed Precip Events Conditions
12:15 AM 21.2 °F - 21.2 °F 100% 29.55 in - North - - N/A   Overcast
12:35 AM 21.2 °F - 21.2 °F 100% 29.55 in - North - - N/A   Overcast
12:55 AM 21.2 °F - 21.2 °F 100% 29.56 in - North - - N/A   Overcast
1:15 AM 21.2 °F - 21.2 °F 100% 29.55 in - North - - N/A   Overcast
1:35 AM 21.2 °F - 19.4 °F 93% 29.57 in - North - - N/A   Overcast
1:55 AM 21.2 °F - 19.4 °F 93% 29.57 in - North - - N/A   Overcast
2:15 AM 21.2 °F - 19.4 °F 93% 29.58 in - North - - N/A   Overcast
2:35 AM 21.2 °F - 19.4 °F 93% 29.58 in - North - - N/A   Overcast
2:55 AM 21.2 °F - 19.4 °F 93% 29.58 in - North - - N/A   Overcast
3:15 AM 19.4 °F 1.1 °F 19.4 °F 100% 29.59 in - NW 27.6 mph - N/A   Overcast
3:35 AM 19.4 °F 1.1 °F 19.4 °F 100% 29.60 in - NW 27.6 mph - N/A   Overcast
3:55 AM 19.4 °F 1.1 °F 17.6 °F 93% 29.60 in - NW 27.6 mph - N/A   Overcast
4:15 AM 19.4 °F 2.5 °F 17.6 °F 93% 29.60 in - NW 23.0 mph - N/A   Overcast
4:35 AM 19.4 °F 2.8 °F 17.6 °F 93% 29.60 in - NW 21.9 mph - N/A   Overcast
4:55 AM 19.4 °F 3.6 °F 17.6 °F 93% 29.61 in - NW 19.6 mph - N/A   Overcast
5:15 AM 19.4 °F 5.0 °F 17.6 °F 93% 29.61 in - NW 16.1 mph - N/A   Unknown
5:35 AM 19.4 °F 6.0 °F 17.6 °F 93% 29.62 in - NW 13.8 mph - N/A   Unknown
5:55 AM 19.4 °F 8.6 °F 17.6 °F 93% 29.62 in - NNW 9.2 mph - N/A   Unknown
6:15 AM 19.4 °F 9.5 °F 17.6 °F 93% 29.62 in - NNW 8.1 mph - N/A   Unknown
6:35 AM 17.6 °F 7.3 °F 17.6 °F 100% 29.63 in - NW 8.1 mph - N/A   Mostly Cloudy
6:55 AM 19.4 °F 8.6 °F 17.6 °F 93% 29.63 in - NW 9.2 mph - N/A   Overcast
7:15 AM 17.6 °F 9.3 °F 17.6 °F 100% 29.65 in - West 5.8 mph - N/A   Unknown
7:35 AM 19.4 °F 12.8 °F 17.6 °F 93% 29.65 in - WSW 4.6 mph - N/A   Unknown
7:55 AM 19.4 °F 10.4 °F 17.6 °F 93% 29.65 in - WSW 6.9 mph - N/A   Unknown
8:15 AM 19.4 °F 6.6 °F 17.6 °F 93% 29.66 in - West 12.7 mph - N/A   Unknown
8:35 AM 19.4 °F 6.0 °F 17.6 °F 93% 29.67 in - WNW 13.8 mph - N/A   Unknown
8:55 AM 19.4 °F 7.2 °F 17.6 °F 93% 29.67 in - NW 11.5 mph - N/A   Unknown
9:15 AM 17.6 °F 5.7 °F 15.8 °F 93% 29.67 in - North 10.4 mph - N/A   Unknown
9:55 AM 19.4 °F 6.6 °F 15.8 °F 86% 29.68 in - NW 12.7 mph - N/A   Unknown
10:15 AM 19.4 °F 7.9 °F 15.8 °F 86% 29.68 in - NW 10.4 mph - N/A   Unknown
10:35 AM 19.4 °F 9.5 °F 15.8 °F 86% 29.69 in - NW 8.1 mph - N/A   Unknown
10:55 AM 19.4 °F 10.4 °F 15.8 °F 86% 29.69 in - NW 6.9 mph - N/A   Unknown
11:15 AM 21.2 °F 11.7 °F 14.0 °F 74% 29.70 in - WNW 8.1 mph - N/A   Scattered Clouds
11:35 AM 21.2 °F 8.9 °F 12.2 °F 68% 29.70 in - West 12.7 mph - N/A   Scattered Clouds
11:55 AM 23.0 °F 10.6 °F 12.2 °F 63% 29.71 in - West 13.8 mph - N/A   Mostly Cloudy
12:15 PM 23.0 °F 11.1 °F 12.2 °F 63% 29.71 in - West 12.7 mph - N/A   Overcast
12:35 PM 23.0 °F 11.7 °F 10.4 °F 59% 29.72 in 10.0 mi West 11.5 mph - N/A   Overcast
12:55 PM 24.8 °F 14.6 °F 10.4 °F 54% 29.72 in 10.0 mi West 10.4 mph - N/A   Overcast
1:15 PM 24.8 °F 12.9 °F 10.4 °F 54% 29.71 in 10.0 mi WNW 13.8 mph - N/A   Mostly Cloudy
1:35 PM 24.8 °F 11.1 °F 10.4 °F 54% 29.71 in 10.0 mi WNW 18.4 mph - N/A   Scattered Clouds
1:55 PM 26.6 °F 13.8 °F 12.2 °F 55% 29.71 in 10.0 mi WNW 17.3 mph - N/A   Clear
2:15 PM 26.6 °F 14.7 °F 10.4 °F 51% 29.71 in 10.0 mi West 15.0 mph - N/A   Scattered Clouds
2:35 PM 26.6 °F 14.7 °F 10.4 °F 51% 29.72 in 10.0 mi West 15.0 mph - N/A   Mostly Cloudy
2:55 PM 26.6 °F 15.7 °F 14.0 °F 59% 29.72 in 10.0 mi West 12.7 mph - N/A   Mostly Cloudy
3:15 PM 26.6 °F 16.2 °F 12.2 °F 55% 29.72 in 10.0 mi West 11.5 mph - N/A   Mostly Cloudy
3:35 PM 28.4 °F 15.8 °F 12.2 °F 51% 29.72 in 10.0 mi WNW 18.4 mph 24.2 mph N/A   Overcast
4:15 PM 26.6 °F 16.2 °F 15.8 °F 64% 29.72 in 10.0 mi NW 11.5 mph - N/A   Scattered Clouds
4:35 PM 26.6 °F 14.3 °F 15.8 °F 64% 29.72 in 10.0 mi NW 16.1 mph - N/A   Mostly Cloudy
4:55 PM 26.6 °F 14.7 °F 17.6 °F 69% 29.72 in 10.0 mi NW 15.0 mph - N/A   Mostly Cloudy
5:15 PM 24.8 °F 14.0 °F 19.4 °F 80% 29.72 in 10.0 mi NW 11.5 mph - N/A   Clear
5:35 PM 26.6 °F 13.4 °F 17.6 °F 69% 29.72 in 10.0 mi NW 18.4 mph - N/A   Clear
5:55 PM 24.8 °F 7.9 °F 23.0 °F 93% 29.73 in 0.2 mi NNW 29.9 mph 33.4 mph N/A Snow Snow
6:15 PM 23.0 °F 5.1 °F 21.2 °F 93% 29.73 in 0.2 mi NNW 31.1 mph - N/A Snow Snow
6:35 PM 23.0 °F 6.0 °F 21.2 °F 93% 29.73 in 0.2 mi NNW 27.6 mph - N/A Snow Heavy Snow
6:55 PM 23.0 °F - 21.2 °F 93% 29.73 in 0.2 mi North - - N/A Snow Heavy Snow
7:15 PM 23.0 °F 6.9 °F 21.2 °F 93% 29.75 in 0.2 mi NW 24.2 mph - N/A Snow Snow
7:35 PM 23.0 °F 7.2 °F 21.2 °F 93% 29.75 in 0.2 mi NW 23.0 mph - N/A Snow Light Snow
7:55 PM 23.0 °F - 21.2 °F 93% 29.76 in - North - - N/A   Overcast
8:35 PM 21.2 °F 4.2 °F 21.2 °F 100% 29.76 in - NW 25.3 mph - N/A   Overcast
8:55 PM 21.2 °F 4.5 °F 19.4 °F 93% 29.77 in - NW 24.2 mph - N/A   Overcast
9:15 PM 21.2 °F 5.2 °F 19.4 °F 93% 29.79 in - NW 21.9 mph - N/A   Overcast
9:35 PM 21.2 °F 6.4 °F 21.2 °F 100% 29.80 in - NW 18.4 mph - N/A   Unknown
9:55 PM 23.0 °F 8.3 °F 21.2 °F 93% 29.80 in - NW 19.6 mph - N/A   Unknown
10:15 PM 23.0 °F 7.6 °F 21.2 °F 93% 29.81 in - NW 21.9 mph - N/A   Unknown
10:35 PM 23.0 °F 7.6 °F 21.2 °F 93% 29.81 in - NW 21.9 mph - N/A   Overcast
10:55 PM 21.2 °F 6.0 °F 21.2 °F 100% 29.80 in - NNW 19.6 mph - N/A   Overcast
11:15 PM 21.2 °F 5.2 °F 21.2 °F 100% 29.80 in - NW 21.9 mph 27.6 mph N/A   Overcast
11:35 PM 21.2 °F 4.5 °F 19.4 °F 93% 29.79 in - NW 24.2 mph - N/A   Overcast
11:55 PM 21.2 °F 5.2 °F 19.4 °F 93% 29.79 in - NW 21.9 mph - N/A   Overcast